Location: Carson
(33.8314°N, 118.2820°W)
Time: 12:57:07
(UTC+00:00)

Cosmos 1937 Rocket - Pass Details

Date: 23 November 2020
Orbit: 745 x 781 km, 74.0° (Epoch: 21 January)

Event Time Altitude Azimuth Distance (km) Brightness Sun altitude
Rises 13:46:38 0° 184° (S) 3,170 6.9 -9.9°
Reaches altitude 10° 13:49:01 10° 180° (S) 2,251 6.2 -9.4°
Maximum altitude 13:53:59 55° 103° (ESE) 891 4.3 -8.4°
Drops below altitude 10° 13:59:00 10° 26° (NNE) 2,274 6.0 -7.4°
Sets 14:01:24 0° 23° (NNE) 3,206 6.8 -7.0°
